This is the latest recevied weather packets stored in our database for station/object SA6BET-2. If no packets are shown the sender has not sent any weather packets the latest 10 day(s).
| Time | Temp. | Humidity | Pressure | Rain* | Wind** | Luminosity | Snow |
|---|---|---|---|---|---|---|---|
| 1778276074 | 17.78° C | 100% | 1015.9 hPa | - | - | - | - |
| 1778275174 | 17.78° C | 100% | 1016 hPa | - | - | - | - |
| 1778274274 | 17.78° C | 100% | 1016.1 hPa | - | - | - | - |
| 1778273374 | 17.78° C | 100% | 1016.1 hPa | - | - | - | - |
| 1778272474 | 17.78° C | 100% | 1016 hPa | - | - | - | - |
| 1778271574 | 18.33° C | 100% | 1015.9 hPa | - | - | - | - |
| 1778270673 | 18.33° C | 100% | 1015.8 hPa | - | - | - | - |
| 1778269773 | 18.33° C | 100% | 1015.8 hPa | - | - | - | - |
| 1778268873 | 18.33° C | 100% | 1015.6 hPa | - | - | - | - |
| 1778267973 | 18.33° C | 100% | 1015.8 hPa | - | - | - | - |
| 1778267073 | 18.89° C | 100% | 1015.7 hPa | - | - | - | - |
| 1778266173 | 18.89° C | 100% | 1015.4 hPa | - | - | - | - |
| 1778265272 | 19.44° C | 100% | 1015.6 hPa | - | - | - | - |
| 1778264372 | 19.44° C | 100% | 1015.5 hPa | - | - | - | - |
| 1778263472 | 20° C | 100% | 1015.2 hPa | - | - | - | - |
| 1778262572 | 20.56° C | 100% | 1015.1 hPa | - | - | - | - |
| 1778261672 | 20.56° C | 100% | 1015 hPa | - | - | - | - |
| 1778260772 | 20.56° C | 100% | 1015.2 hPa | - | - | - | - |
| 1778259871 | 21.67° C | 100% | 1015.1 hPa | - | - | - | - |
| 1778258971 | 21.11° C | 100% | 1015.2 hPa | - | - | - | - |
| 1778258071 | 22.78° C | 100% | 1015.2 hPa | - | - | - | - |
| 1778257171 | 22.22° C | 100% | 1015.2 hPa | - | - | - | - |
| 1778256271 | 24.44° C | 74% | 1015.2 hPa | - | - | - | - |
| 1778255371 | 24.44° C | 80% | 1015.1 hPa | - | - | - | - |
| 1778254470 | 27.22° C | 61% | 1015.1 hPa | - | - | - | - |
* Rain since midnight (hover to see other rain measurements)
** Current wind speed in m/s (hover to see current wind gust speed)